M I D A S
Marine Information and Data Acquisition System
Tripno 1739 of the Zeeleeuw from 2009-07-27 06:58:48 to 2009-07-27 13:02:44
Back to CruiseResearch ActivitiesStationsMapUnderway DataData graphs

EquipmentUnitsComments
TimeDGPSUTC
LatitudeDGPSDM.mWGS84
LongitudeDGPSDM.mWGS84
SpeedMeteo Stationm/sRelative wind speed
DirectionMeteo StationdegRelative wind direction
TemperatureMeteo Stationdeg CelciusAir temperature
PressureMeteo StationPaAtmospheric pressure
HumidityMeteo Station%Relative humidity
Missing or incorrect values are displayed as -999
Metereological data collected by the RV Zeeleeuw from 2009-07-27 06:45:13 to 2009-07-27 13:10:34
                                                                                    Next 1000 lines
Time Latitude Longitude Speed Direction Temperature Pressure Humidity
2009-07-27 06:45:22 51°13.664 2°55.958 2 27 17.8 101010 54
2009-07-27 06:45:27 51°13.665 2°55.958 1.8 29 17.8 101010 54
2009-07-27 06:45:32 51°13.665 2°55.952 1.8 29 17.8 101010 53
2009-07-27 06:45:37 51°13.662 2°55.959 2.1 18 17.8 101010 53
2009-07-27 06:45:42 51°13.662 2°55.959 2.2 14 17.8 101010 53
2009-07-27 06:45:47 51°13.663 2°55.96 1.7 17 17.8 101010 53
2009-07-27 06:45:52 51°13.663 2°55.96 1.3 18 17.8 101020 54
2009-07-27 06:45:57 51°13.662 2°55.96 1.9 18 17.8 101020 54
2009-07-27 06:46:01 51°13.662 2°55.959 1.7 20 17.8 101010 53
2009-07-27 06:46:06 51°13.662 2°55.959 1.5 25 17.8 101010 53
2009-07-27 06:46:11 51°13.663 2°55.958 1.2 25 17.8 101010 53
2009-07-27 06:46:17 51°13.663 2°55.958 1.5 22 17.8 101010 53
2009-07-27 06:46:22 51°13.663 2°55.959 1.5 20 17.8 101010 54
2009-07-27 06:46:28 51°13.663 2°55.959 1.6 21 17.8 101010 54
2009-07-27 06:46:33 51°13.663 2°55.959 1.4 20 17.8 101010 52
2009-07-27 06:46:38 51°13.664 2°55.959 1.6 21 17.8 101010 52
2009-07-27 06:46:42 51°13.664 2°55.959 1.5 21 17.8 101010 54
2009-07-27 06:46:47 51°13.664 2°55.959 1.2 21 17.8 101010 54
2009-07-27 06:46:52 51°13.665 2°55.959 1.3 20 17.8 101010 54
2009-07-27 06:46:58 51°13.665 2°55.959 1.1 21 17.8 101010 54
2009-07-27 06:47:02 51°13.665 2°55.959 1 23 17.8 101010 52
2009-07-27 06:47:07 51°13.665 2°55.959 1 23 17.8 101010 52
2009-07-27 06:47:12 51°13.665 2°55.959 1 23 17.8 101010 53
2009-07-27 06:47:17 51°13.664 2°55.959 1.1 27 17.8 101010 53
2009-07-27 06:47:22 51°13.664 2°55.96 1 26 17.9 101020 54
2009-07-27 06:47:27 51°13.664 2°55.96 0.5 26 17.9 101020 54
2009-07-27 06:47:31 51°13.664 2°55.96 0.9 27 17.9 101010 53
2009-07-27 06:47:36 51°13.664 2°55.96 0.6 26 17.9 101010 53
2009-07-27 06:47:41 51°13.664 2°55.96 0.5 26 17.9 101020 53
2009-07-27 06:47:46 51°13.664 2°55.96 1 10 17.9 101020 53
2009-07-27 06:47:51 51°13.664 2°55.96 1.1 10 17.9 101020 53
2009-07-27 06:47:56 51°13.664 2°55.96 1 9 17.9 101020 53
2009-07-27 06:48:01 51°13.664 2°55.96 0.9 11 17.9 101010 54
2009-07-27 06:48:06 51°13.664 2°55.96 1.1 17 17.9 101010 54
2009-07-27 06:48:10 51°13.664 2°55.96 1.9 17 17.9 101020 54
2009-07-27 06:48:16 51°13.664 2°55.96 1.7 17 17.9 101020 54
2009-07-27 06:48:22 51°13.664 2°55.96 1.9 16 17.9 101020 53
2009-07-27 06:48:26 51°13.664 2°55.96 1.8 20 17.9 101020 53
2009-07-27 06:48:31 51°13.664 2°55.96 1.6 28 17.9 101010 54
2009-07-27 06:48:36 51°13.664 2°55.96 1.3 29 17.9 101010 54
2009-07-27 06:48:41 51°13.664 2°55.96 1.3 31 17.9 101020 54
2009-07-27 06:48:46 51°13.664 2°55.96 1.3 30 17.9 101020 54
2009-07-27 06:48:50 51°13.664 2°55.96 1.2 31 17.9 101010 53
2009-07-27 06:48:55 51°13.664 2°55.96 1.2 32 17.9 101010 53
2009-07-27 06:49:00 51°13.664 2°55.96 1.3 34 17.9 101010 54
2009-07-27 06:49:05 51°13.664 2°55.96 1.2 34 17.9 101010 54
2009-07-27 06:49:10 51°13.664 2°55.96 1.3 34 17.9 101020 53
2009-07-27 06:49:15 51°13.664 2°55.96 1.1 33 17.9 101020 53
2009-07-27 06:49:19 51°13.664 2°55.96 1.1 33 18 101010 53
2009-07-27 06:49:25 51°13.664 2°55.96 1 34 18 101010 53
2009-07-27 06:49:30 51°13.664 2°55.96 1.1 33 18 101010 54
2009-07-27 06:49:35 51°13.664 2°55.96 1.2 33 18 101010 54
2009-07-27 06:49:39 51°13.664 2°55.96 1.2 34 18 101020 53
2009-07-27 06:49:45 51°13.664 2°55.96 1.1 33 18 101020 53
2009-07-27 06:49:50 51°13.664 2°55.96 1 34 18 101010 52
2009-07-27 06:49:54 51°13.664 2°55.96 0.9 34 18 101010 52
2009-07-27 06:49:59 51°13.664 2°55.96 0.7 34 17.9 101020 53
2009-07-27 06:50:05 51°13.664 2°55.96 0.6 34 17.9 101020 53
2009-07-27 06:50:10 51°13.664 2°55.96 0.5 33 18 101020 53
2009-07-27 06:50:14 51°13.664 2°55.96 0.6 34 18 101020 53
2009-07-27 06:50:19 51°13.664 2°55.96 0.7 34 18 101020 53
2009-07-27 06:50:25 51°13.664 2°55.96 0.7 33 18 101020 53
2009-07-27 06:50:30 51°13.664 2°55.96 0.8 34 17.9 101020 54
2009-07-27 06:50:35 51°13.664 2°55.96 0.6 34 17.9 101020 54
2009-07-27 06:50:40 51°13.664 2°55.96 0.5 34 18 101010 54
2009-07-27 06:50:45 51°13.664 2°55.96 0.3 33 18 101010 54
2009-07-27 06:50:50 51°13.664 2°55.96 0.6 33 18 101020 55
2009-07-27 06:50:54 51°13.664 2°55.96 1 34 18 101020 55
2009-07-27 06:50:59 51°13.664 2°55.96 1.1 34 18 101020 54
2009-07-27 06:51:04 51°13.664 2°55.96 0.9 34 18 101020 54
2009-07-27 06:51:09 51°13.664 2°55.96 0.8 34 18 101020 54
2009-07-27 06:51:15 51°13.664 2°55.96 0.7 34 18 101020 54
2009-07-27 06:51:19 51°13.664 2°55.96 0.7 34 18 101020 54
2009-07-27 06:51:25 51°13.664 2°55.96 0.7 33 18 101020 54
2009-07-27 06:51:29 51°13.664 2°55.96 0.6 34 18 101020 54
2009-07-27 06:51:35 51°13.663 2°55.96 0.5 34 18 101020 54
2009-07-27 06:51:39 51°13.663 2°55.96 0.6 34 18 101020 53
2009-07-27 06:51:45 51°13.662 2°55.96 0.5 34 18 101020 53
2009-07-27 06:51:49 51°13.662 2°55.96 0.6 34 18 101020 54
2009-07-27 06:51:55 51°13.662 2°55.961 0.6 33 18 101020 54
2009-07-27 06:51:59 51°13.662 2°55.961 0.5 34 18 101020 54
2009-07-27 06:52:05 51°13.662 2°55.961 0.4 34 18 101020 54
2009-07-27 06:52:09 51°13.662 2°55.961 0.4 34 18 101010 54
2009-07-27 06:52:15 51°13.662 2°55.962 0.4 34 18 101010 54
2009-07-27 06:52:20 51°13.663 2°55.962 0.4 34 18 101020 54
2009-07-27 06:52:25 51°13.663 2°55.962 0.4 34 18 101020 54
2009-07-27 06:52:29 51°13.663 2°55.962 0.4 34 18 101020 53
2009-07-27 06:52:35 51°13.663 2°55.962 0.4 34 18 101020 53
2009-07-27 06:52:39 51°13.662 2°55.962 0.4 34 18 101020 54
2009-07-27 06:52:45 51°13.662 2°55.962 0.5 34 18 101020 54
2009-07-27 06:52:50 51°13.662 2°55.962 0.4 34 18.1 101020 54
2009-07-27 06:52:56 51°13.662 2°55.962 0.4 33 18.1 101020 54
2009-07-27 06:53:01 51°13.662 2°55.962 0.4 34 18.1 101010 54
2009-07-27 06:53:07 51°13.662 2°55.962 0.4 34 18.1 101010 54
2009-07-27 06:53:12 51°13.662 2°55.962 0.4 34 18.1 101010 54
2009-07-27 06:53:18 51°13.662 2°55.962 0.3 34 18.1 101010 54
2009-07-27 06:53:23 51°13.662 2°55.962 0.3 34 18.1 101010 54
2009-07-27 06:53:28 51°13.662 2°55.962 0.3 34 18.1 101010 54
2009-07-27 06:53:34 51°13.663 2°55.962 0.3 34 18.1 101010 54
2009-07-27 06:53:38 51°13.663 2°55.963 0.2 34 18.1 101010 54
2009-07-27 06:53:43 51°13.663 2°55.963 0.2 34 18.1 101010 54
2009-07-27 06:53:48 51°13.663 2°55.963 0.1 34 18.1 101010 54
2009-07-27 06:53:53 51°13.663 2°55.962 0.1 34 18.2 101010 54
2009-07-27 06:53:58 51°13.663 2°55.962 -999 34 18.2 101010 54
2009-07-27 06:54:03 51°13.663 2°55.962 -999 34 18.2 101010 54
2009-07-27 06:54:08 51°13.663 2°55.962 -999 34 18.2 101010 54
2009-07-27 06:54:12 51°13.663 2°55.962 -999 35 18.2 101020 54
2009-07-27 06:54:17 51°13.663 2°55.962 -999 35 18.2 101020 54
2009-07-27 06:54:22 51°13.663 2°55.962 -999 35 18.2 101010 54
2009-07-27 06:54:27 51°13.663 2°55.962 -999 37 18.2 101010 54
2009-07-27 06:54:32 51°13.663 2°55.961 -999 36 18.2 101010 54
2009-07-27 06:54:36 51°13.663 2°55.961 -999 36 18.2 101010 54
2009-07-27 06:54:42 51°13.663 2°55.961 -999 36 18.2 101020 54
2009-07-27 06:54:47 51°13.663 2°55.961 -999 36 18.2 101020 54
2009-07-27 06:54:52 51°13.663 2°55.961 -999 36 18.2 101010 54
2009-07-27 06:54:58 51°13.663 2°55.961 -999 36 18.2 101010 54
2009-07-27 06:55:03 51°13.663 2°55.961 -999 36 18.2 101020 54
2009-07-27 06:55:08 51°13.663 2°55.961 -999 36 18.2 101020 54
2009-07-27 06:55:13 51°13.663 2°55.96 -999 36 18.3 101010 54
2009-07-27 06:55:18 51°13.663 2°55.96 -999 36 18.3 101010 54
2009-07-27 06:55:23 51°13.663 2°55.96 -999 37 18.3 101010 54
2009-07-27 06:55:28 51°13.663 2°55.96 -999 36 18.3 101010 54
2009-07-27 06:55:33 51°13.663 2°55.96 -999 36 18.3 101020 54
2009-07-27 06:55:38 51°13.663 2°55.96 -999 37 18.3 101020 54
2009-07-27 06:55:43 51°13.663 2°55.96 -999 37 18.3 101020 54
2009-07-27 06:55:48 51°13.663 2°55.96 -999 37 18.3 101020 54
2009-07-27 06:55:53 51°13.663 2°55.96 -999 37 18.3 101010 54
2009-07-27 06:55:58 51°13.663 2°55.96 -999 37 18.3 101010 54
2009-07-27 06:56:03 51°13.663 2°55.96 -999 37 18.3 101020 54
2009-07-27 06:56:07 51°13.663 2°55.961 -999 37 18.3 101020 54
2009-07-27 06:56:12 51°13.663 2°55.961 -999 37 18.4 101020 54
2009-07-27 06:56:17 51°13.663 2°55.961 -999 37 18.4 101020 54
2009-07-27 06:56:22 51°13.663 2°55.961 -999 37 18.4 101010 54
2009-07-27 06:56:27 51°13.663 2°55.961 -999 37 18.4 101010 54
2009-07-27 06:56:32 51°13.663 2°55.961 -999 37 18.4 101010 54
2009-07-27 06:56:37 51°13.663 2°55.961 -999 36 18.4 101010 54
2009-07-27 06:56:42 51°13.663 2°55.961 -999 36 18.4 101010 54
2009-07-27 06:56:47 51°13.662 2°55.961 -999 37 18.4 101010 54
2009-07-27 06:56:51 51°13.662 2°55.961 -999 37 18.4 101020 55
2009-07-27 06:56:56 51°13.662 2°55.961 0.2 42 18.4 101020 55
2009-07-27 06:57:01 51°13.662 2°55.961 0.6 41 18.4 101010 55
2009-07-27 06:57:06 51°13.662 2°55.961 0.4 42 18.4 101010 55
2009-07-27 06:57:11 51°13.662 2°55.961 0.4 41 18.4 101020 54
2009-07-27 06:57:15 51°13.662 2°55.961 0.5 41 18.4 101020 54
2009-07-27 06:57:20 51°13.662 2°55.961 0.4 41 18.5 101010 54
2009-07-27 06:57:25 51°13.662 2°55.961 0.5 33 18.5 101010 54
2009-07-27 06:57:30 51°13.662 2°55.961 0.6 29 18.5 101010 55
2009-07-27 06:57:35 51°13.662 2°55.961 1 32 18.5 101010 55
2009-07-27 06:57:39 51°13.662 2°55.96 1 28 18.5 101020 55
2009-07-27 06:57:44 51°13.662 2°55.96 0.9 52 18.5 101020 55
2009-07-27 06:57:50 51°13.662 2°55.959 0.8 25 18.5 101010 53
2009-07-27 06:57:55 51°13.663 2°55.957 0.9 55 18.5 101010 53
2009-07-27 06:58:00 51°13.663 2°55.954 1.2 21 18.6 101010 55
2009-07-27 06:58:04 51°13.664 2°55.952 1.6 59 18.6 101010 55
2009-07-27 06:58:09 51°13.665 2°55.948 1.8 24 18.6 101020 55
2009-07-27 06:58:15 51°13.666 2°55.942 1.6 34 18.6 101020 55
2009-07-27 06:58:21 51°13.668 2°55.936 1.7 30 18.6 101010 54
2009-07-27 06:58:27 51°13.67 2°55.929 2.9 58 18.6 101010 54
2009-07-27 06:58:32 51°13.672 2°55.922 3.1 25 18.6 101010 55
2009-07-27 06:58:38 51°13.674 2°55.914 2.9 33 18.6 101010 55
2009-07-27 06:58:43 51°13.676 2°55.907 3.1 23 18.6 101020 54
2009-07-27 06:58:48 51°13.678 2°55.899 3.5 37 18.6 101020 54
2009-07-27 06:58:53 51°13.68 2°55.891 3.7 29 18.6 101020 53
2009-07-27 06:58:59 51°13.682 2°55.882 3.2 39 18.6 101020 53
2009-07-27 06:59:03 51°13.683 2°55.876 2.6 24 18.5 101010 53
2009-07-27 06:59:08 51°13.684 2°55.868 1.8 40 18.5 101010 53
2009-07-27 06:59:13 51°13.686 2°55.86 1.7 28 18.5 101020 53
2009-07-27 06:59:18 51°13.688 2°55.853 2.9 38 18.5 101020 53
2009-07-27 06:59:23 51°13.689 2°55.845 2 27 18.5 101020 54
2009-07-27 06:59:28 51°13.69 2°55.838 2 38 18.5 101020 54
2009-07-27 06:59:33 51°13.691 2°55.83 2.1 23 18.4 101020 54
2009-07-27 06:59:38 51°13.692 2°55.823 2.9 33 18.4 101020 54
2009-07-27 06:59:43 51°13.693 2°55.816 3.2 21 18.3 101020 54
2009-07-27 06:59:48 51°13.694 2°55.809 2.7 41 18.3 101020 54
2009-07-27 06:59:54 51°13.694 2°55.8 2.6 23 18.4 101020 54
2009-07-27 06:59:58 51°13.695 2°55.794 2.6 33 18.4 101020 54
2009-07-27 07:00:03 51°13.695 2°55.787 2.9 24 18.3 101020 54
2009-07-27 07:00:08 51°13.696 2°55.78 3.3 60 18.3 101020 54
2009-07-27 07:00:14 51°13.696 2°55.773 3.1 23 18.3 101020 53
2009-07-27 07:00:18 51°13.696 2°55.767 3.7 36 18.3 101020 53
2009-07-27 07:00:23 51°13.697 2°55.762 3.3 20 18.3 101020 54
2009-07-27 07:00:28 51°13.697 2°55.756 2.5 59 18.3 101020 54
2009-07-27 07:00:34 51°13.697 2°55.75 2.8 29 18.3 101020 53
2009-07-27 07:00:38 51°13.697 2°55.746 2.3 60 18.3 101020 53
2009-07-27 07:00:43 51°13.697 2°55.742 2 29 18.2 101020 54
2009-07-27 07:00:48 51°13.697 2°55.74 2.8 51 18.2 101020 54
2009-07-27 07:00:52 51°13.697 2°55.738 2 22 18.2 101020 54
2009-07-27 07:00:57 51°13.697 2°55.737 2.5 41 18.2 101020 54
2009-07-27 07:01:02 51°13.698 2°55.737 2.3 28 18.2 101020 54
2009-07-27 07:01:07 51°13.698 2°55.736 1.7 33 18.2 101020 54
2009-07-27 07:01:12 51°13.699 2°55.737 1.7 29 18.2 101020 54
2009-07-27 07:01:16 51°13.699 2°55.737 1.7 52 18.2 101020 54
2009-07-27 07:01:22 51°13.7 2°55.738 1.9 27 18.2 101020 55
2009-07-27 07:01:27 51°13.701 2°55.739 1.9 307 18.2 101020 55
2009-07-27 07:01:31 51°13.701 2°55.74 1.8 269 18.2 101020 54
2009-07-27 07:01:36 51°13.702 2°55.741 1.7 302 18.2 101020 54
2009-07-27 07:01:41 51°13.703 2°55.742 2.2 270 18.2 101020 54
2009-07-27 07:01:46 51°13.704 2°55.743 2.1 43 18.2 101020 54
2009-07-27 07:01:51 51°13.704 2°55.743 2 30 18.2 101020 54
2009-07-27 07:01:55 51°13.704 2°55.743 1.8 268 18.2 101020 54
2009-07-27 07:02:00 51°13.704 2°55.742 1.5 268 18.2 101020 55
2009-07-27 07:02:05 51°13.703 2°55.742 1.3 266 18.2 101020 55
2009-07-27 07:02:10 51°13.703 2°55.741 1.7 266 18.3 101020 54
2009-07-27 07:02:15 51°13.701 2°55.74 1.9 44 18.3 101020 54
2009-07-27 07:02:19 51°13.7 2°55.739 2 32 18.3 101020 54
2009-07-27 07:02:24 51°13.699 2°55.738 1.7 54 18.3 101020 54
2009-07-27 07:02:30 51°13.697 2°55.737 2 31 18.3 101020 55
2009-07-27 07:02:35 51°13.696 2°55.736 1.7 270 18.3 101020 55
2009-07-27 07:02:40 51°13.695 2°55.735 1.6 32 18.3 101020 53
2009-07-27 07:02:45 51°13.695 2°55.735 1.6 306 18.3 101020 53
2009-07-27 07:02:50 51°13.695 2°55.735 1.7 258 18.3 101020 54
2009-07-27 07:02:55 51°13.697 2°55.734 2.1 243 18.3 101020 54
2009-07-27 07:03:00 51°13.698 2°55.734 2.4 22 18.3 101020 54
2009-07-27 07:03:05 51°13.7 2°55.734 2.6 302 18.3 101020 54
2009-07-27 07:03:09 51°13.703 2°55.733 2.7 317 18.3 101020 54
2009-07-27 07:03:15 51°13.706 2°55.732 3 317 18.3 101020 54
2009-07-27 07:03:20 51°13.71 2°55.73 3.2 320 18.3 101020 54
2009-07-27 07:03:25 51°13.714 2°55.727 3.4 301 18.3 101020 54
2009-07-27 07:03:29 51°13.719 2°55.724 4.7 29 18.3 101020 55
2009-07-27 07:03:35 51°13.726 2°55.719 4.1 304 18.3 101020 55
2009-07-27 07:03:40 51°13.732 2°55.713 4.5 319 18.3 101020 53
2009-07-27 07:03:45 51°13.739 2°55.708 4.2 307 18.3 101020 53
2009-07-27 07:03:50 51°13.747 2°55.701 5.2 320 18.3 101010 54
2009-07-27 07:03:55 51°13.755 2°55.695 5 301 18.3 101010 54
2009-07-27 07:03:59 51°13.761 2°55.689 5 323 18.4 101010 55
2009-07-27 07:04:04 51°13.77 2°55.683 5.1 324 18.4 101010 55
2009-07-27 07:04:10 51°13.78 2°55.674 5.6 327 18.3 101010 53
2009-07-27 07:04:15 51°13.789 2°55.667 5.1 308 18.3 101010 53
2009-07-27 07:04:19 51°13.797 2°55.661 5 326 18.3 101020 54
2009-07-27 07:04:24 51°13.806 2°55.653 5.3 324 18.3 101020 54
2009-07-27 07:04:30 51°13.818 2°55.644 4.5 330 18.3 101010 53
2009-07-27 07:04:35 51°13.828 2°55.637 6.1 329 18.3 101010 53
2009-07-27 07:04:39 51°13.836 2°55.63 6.7 326 18.3 101010 54
2009-07-27 07:04:44 51°13.846 2°55.623 6.2 309 18.3 101010 54
2009-07-27 07:04:50 51°13.859 2°55.614 6.4 323 18.3 101010 54
2009-07-27 07:04:55 51°13.869 2°55.606 3.9 321 18.3 101010 54
2009-07-27 07:04:59 51°13.877 2°55.599 3.7 320 18.3 101020 53
2009-07-27 07:05:03 51°13.886 2°55.593 5.1 323 18.3 101020 53
2009-07-27 07:05:09 51°13.898 2°55.583 5.9 318 18.3 101010 54
2009-07-27 07:05:15 51°13.911 2°55.574 7.1 327 18.3 101010 54
2009-07-27 07:05:19 51°13.919 2°55.568 6 325 18.3 101010 54
2009-07-27 07:05:25 51°13.932 2°55.558 7.3 307 18.3 101010 54
2009-07-27 07:05:29 51°13.941 2°55.551 5.7 321 18.3 101010 55
2009-07-27 07:05:35 51°13.954 2°55.542 5.2 320 18.3 101010 55
2009-07-27 07:05:39 51°13.962 2°55.536 5.5 325 18.3 101010 54
2009-07-27 07:05:45 51°13.975 2°55.527 6.1 305 18.3 101010 54
2009-07-27 07:05:49 51°13.984 2°55.52 5.9 322 18.3 101010 54
2009-07-27 07:05:55 51°13.996 2°55.511 6.5 302 18.3 101010 54
2009-07-27 07:05:59 51°14.005 2°55.505 5.8 320 18.3 101010 54
2009-07-27 07:06:04 51°14.016 2°55.497 5.2 320 18.3 101010 54
2009-07-27 07:06:09 51°14.027 2°55.489 5.9 318 18.3 101010 54
2009-07-27 07:06:15 51°14.04 2°55.479 5.4 329 18.3 101010 54
2009-07-27 07:06:19 51°14.048 2°55.473 6.3 327 18.2 101010 53
2009-07-27 07:06:25 51°14.061 2°55.463 6.9 324 18.2 101010 53
2009-07-27 07:06:30 51°14.072 2°55.455 6.5 325 18.2 101010 54
2009-07-27 07:06:35 51°14.083 2°55.447 5.4 308 18.2 101010 54
2009-07-27 07:06:39 51°14.091 2°55.44 4.8 325 18.2 101010 54
2009-07-27 07:06:45 51°14.104 2°55.43 7.3 324 18.2 101010 54
2009-07-27 07:06:50 51°14.115 2°55.422 5.8 323 18.2 101010 54
2009-07-27 07:06:55 51°14.125 2°55.413 6.1 322 18.2 101010 54
2009-07-27 07:06:59 51°14.133 2°55.406 7 322 18.2 101010 55
2009-07-27 07:07:03 51°14.142 2°55.398 5.8 303 18.2 101010 55
2009-07-27 07:07:10 51°14.156 2°55.385 6.9 322 18.2 101010 54
2009-07-27 07:07:15 51°14.166 2°55.375 6.4 308 18.2 101010 54
2009-07-27 07:07:19 51°14.174 2°55.366 6.6 324 18.2 101010 55
2009-07-27 07:07:24 51°14.184 2°55.355 5.6 323 18.2 101010 55
2009-07-27 07:07:30 51°14.195 2°55.341 7.5 324 18.1 101010 55
2009-07-27 07:07:35 51°14.205 2°55.329 6.1 322 18.1 101010 55
2009-07-27 07:07:39 51°14.212 2°55.32 5.9 324 18.1 101010 55
2009-07-27 07:07:45 51°14.223 2°55.304 5.8 307 18.1 101010 55
2009-07-27 07:07:49 51°14.23 2°55.294 6 320 18.1 101010 56
2009-07-27 07:07:55 51°14.24 2°55.278 5.8 330 18.1 101010 56
2009-07-27 07:07:59 51°14.247 2°55.267 7.2 324 18.1 101010 56
2009-07-27 07:08:05 51°14.257 2°55.25 7.3 305 18.1 101010 56
2009-07-27 07:08:09 51°14.263 2°55.239 7.1 323 18.1 101010 56
2009-07-27 07:08:15 51°14.273 2°55.221 6.6 301 18.1 101010 56
2009-07-27 07:08:19 51°14.279 2°55.21 6.7 327 18.1 101010 55
2009-07-27 07:08:24 51°14.287 2°55.195 6.9 322 18.1 101010 55
2009-07-27 07:08:30 51°14.296 2°55.177 6.9 321 18.1 101010 56
2009-07-27 07:08:35 51°14.304 2°55.162 5.8 326 18.1 101010 56
2009-07-27 07:08:40 51°14.312 2°55.147 5.7 328 18.1 101010 55
2009-07-27 07:08:45 51°14.319 2°55.132 6 303 18.1 101010 55
2009-07-27 07:08:49 51°14.325 2°55.12 6.7 321 18.1 101010 56
2009-07-27 07:08:55 51°14.334 2°55.101 7.7 301 18.1 101010 56
2009-07-27 07:08:59 51°14.34 2°55.089 6.7 322 18.1 101010 56
2009-07-27 07:09:05 51°14.35 2°55.07 6 322 18.1 101010 56
2009-07-27 07:09:10 51°14.357 2°55.055 5.8 321 18.1 101000 57
2009-07-27 07:09:15 51°14.365 2°55.039 5.9 320 18.1 101000 57
2009-07-27 07:09:20 51°14.373 2°55.024 5.8 320 18.1 101000 57
2009-07-27 07:09:24 51°14.38 2°55.012 5.8 302 18.1 101000 57
2009-07-27 07:09:30 51°14.392 2°54.995 5.8 319 18.1 101000 56
2009-07-27 07:09:35 51°14.401 2°54.982 6.9 320 18.1 101000 56
2009-07-27 07:09:40 51°14.411 2°54.969 6.8 321 18.1 101000 57
2009-07-27 07:09:44 51°14.419 2°54.958 6 320 18.1 101000 57
2009-07-27 07:09:49 51°14.43 2°54.945 7.2 320 18.1 101000 57
2009-07-27 07:09:55 51°14.443 2°54.93 7.6 319 18.1 101000 57
2009-07-27 07:10:00 51°14.454 2°54.917 7.5 319 18.1 101000 56
2009-07-27 07:10:04 51°14.464 2°54.906 6.2 318 18.1 101000 56
2009-07-27 07:10:09 51°14.475 2°54.894 6.2 320 18.1 101000 56
2009-07-27 07:10:15 51°14.49 2°54.878 7.2 320 18.1 101000 56
2009-07-27 07:10:20 51°14.502 2°54.865 6.4 319 18.1 101000 57
2009-07-27 07:10:24 51°14.512 2°54.853 6.4 318 18.1 101000 57
2009-07-27 07:10:29 51°14.524 2°54.84 7.9 320 18 101000 55
2009-07-27 07:10:35 51°14.54 2°54.825 7.7 304 18 101000 55
2009-07-27 07:10:40 51°14.553 2°54.812 7.4 318 18 101000 55
2009-07-27 07:10:45 51°14.566 2°54.798 6.3 317 18 101000 55
2009-07-27 07:10:49 51°14.576 2°54.788 7.4 318 18 101000 58
2009-07-27 07:10:55 51°14.592 2°54.772 7.1 304 18 101000 58
2009-07-27 07:11:00 51°14.606 2°54.76 6.2 318 18 100990 56
2009-07-27 07:11:05 51°14.619 2°54.746 7 319 18 100990 56
2009-07-27 07:11:10 51°14.633 2°54.733 8 319 18 100990 55
2009-07-27 07:11:15 51°14.646 2°54.72 7.2 304 18 100990 55
2009-07-27 07:11:20 51°14.66 2°54.707 7.2 319 18 101000 56
2009-07-27 07:11:25 51°14.674 2°54.693 7 319 18 101000 56
2009-07-27 07:11:29 51°14.685 2°54.683 6.9 319 18 101000 58
2009-07-27 07:11:35 51°14.702 2°54.666 8.1 318 18 101000 58
2009-07-27 07:11:40 51°14.716 2°54.653 6.9 318 18 101000 58
2009-07-27 07:11:44 51°14.728 2°54.642 6.7 319 18 101000 58
2009-07-27 07:11:50 51°14.745 2°54.626 7.9 318 18 100990 58
2009-07-27 07:11:55 51°14.759 2°54.612 7.7 320 18 100990 58
2009-07-27 07:12:00 51°14.773 2°54.599 8 318 18 101000 58
2009-07-27 07:12:04 51°14.784 2°54.589 7.7 322 18 101000 58
2009-07-27 07:12:09 51°14.799 2°54.576 7.8 320 18 100990 56
2009-07-27 07:12:15 51°14.815 2°54.56 8 322 18 100990 56
2009-07-27 07:12:20 51°14.829 2°54.548 6.8 320 18 101000 57
2009-07-27 07:12:24 51°14.841 2°54.537 6.9 321 18 101000 57
2009-07-27 07:12:29 51°14.854 2°54.524 8.1 321 18 101000 57
2009-07-27 07:12:35 51°14.871 2°54.508 6.8 308 18 101000 57
2009-07-27 07:12:40 51°14.885 2°54.495 8 320 18 101000 56
2009-07-27 07:12:44 51°14.897 2°54.485 7.2 318 18 101000 56
2009-07-27 07:12:49 51°14.911 2°54.472 7.1 318 18 101000 56
2009-07-27 07:12:55 51°14.928 2°54.457 8.3 302 18 101000 56
2009-07-27 07:13:00 51°14.942 2°54.444 8.5 320 18 101000 58
2009-07-27 07:13:05 51°14.956 2°54.432 7.2 319 18 101000 58
2009-07-27 07:13:09 51°14.968 2°54.421 6.9 319 18 101000 57
2009-07-27 07:13:15 51°14.985 2°54.406 8 303 18 101000 57
2009-07-27 07:13:20 51°14.999 2°54.393 7.1 319 18 100990 58
2009-07-27 07:13:25 51°15.014 2°54.381 7.8 319 18 100990 58
2009-07-27 07:13:29 51°15.025 2°54.371 8.2 321 18 101000 58
2009-07-27 07:13:35 51°15.042 2°54.355 7.9 318 18 101000 58
2009-07-27 07:13:40 51°15.057 2°54.343 7.6 320 18 101000 57
2009-07-27 07:13:45 51°15.071 2°54.33 8.4 318 18 101000 57
2009-07-27 07:13:50 51°15.086 2°54.318 8.3 318 18 101000 57
2009-07-27 07:13:55 51°15.1 2°54.305 8.3 317 18 101000 57
2009-07-27 07:14:00 51°15.114 2°54.292 8.1 317 18 101000 58
2009-07-27 07:14:04 51°15.126 2°54.283 7 320 18 101000 58
2009-07-27 07:14:10 51°15.143 2°54.267 8.2 321 18 101000 56
2009-07-27 07:14:15 51°15.158 2°54.255 6.7 320 18 101000 56
2009-07-27 07:14:20 51°15.172 2°54.242 6.7 319 17.9 101000 57
2009-07-27 07:14:24 51°15.183 2°54.232 6.8 320 17.9 101000 57
2009-07-27 07:14:29 51°15.198 2°54.219 7.7 320 17.9 101000 58
2009-07-27 07:14:35 51°15.215 2°54.204 6.7 319 17.9 101000 58
2009-07-27 07:14:40 51°15.229 2°54.191 6.5 319 17.9 101000 57
2009-07-27 07:14:44 51°15.24 2°54.18 6.5 320 17.9 101000 57
2009-07-27 07:14:49 51°15.254 2°54.167 7.7 319 17.9 101000 57
2009-07-27 07:14:55 51°15.272 2°54.152 8.1 320 17.9 101000 57
2009-07-27 07:15:00 51°15.286 2°54.14 6.9 320 17.9 101000 57
2009-07-27 07:15:04 51°15.297 2°54.13 8 318 17.9 101000 57
2009-07-27 07:15:09 51°15.312 2°54.117 7.6 317 17.9 101000 56
2009-07-27 07:15:15 51°15.329 2°54.102 7.9 307 17.9 101000 56
2009-07-27 07:15:20 51°15.343 2°54.089 7.9 318 17.9 101000 57
2009-07-27 07:15:25 51°15.358 2°54.077 6.9 318 17.9 101000 57
2009-07-27 07:15:29 51°15.369 2°54.067 7.2 316 17.9 101000 58
2009-07-27 07:15:35 51°15.387 2°54.052 7.3 320 17.9 101000 58
2009-07-27 07:15:40 51°15.401 2°54.039 9 320 17.9 101000 56
2009-07-27 07:15:45 51°15.416 2°54.027 8.6 319 17.9 101000 56
2009-07-27 07:15:49 51°15.428 2°54.018 7.5 320 17.9 100990 56
2009-07-27 07:15:55 51°15.445 2°54.003 7 319 17.9 100990 56
2009-07-27 07:16:00 51°15.459 2°53.991 7.3 319 17.9 100990 58
2009-07-27 07:16:04 51°15.471 2°53.981 7.6 318 17.9 100990 58
2009-07-27 07:16:10 51°15.488 2°53.967 7.3 318 17.9 101000 57
2009-07-27 07:16:15 51°15.503 2°53.955 9 320 17.9 101000 57
2009-07-27 07:16:20 51°15.517 2°53.943 7.6 322 17.9 101000 56
2009-07-27 07:16:24 51°15.529 2°53.933 8 319 17.9 101000 56
2009-07-27 07:16:30 51°15.546 2°53.918 7.5 320 17.9 100990 58
2009-07-27 07:16:35 51°15.561 2°53.905 7.8 319 17.9 100990 58
2009-07-27 07:16:40 51°15.575 2°53.892 8.5 319 17.9 100990 56
2009-07-27 07:16:44 51°15.586 2°53.881 8.4 320 17.9 100990 56
2009-07-27 07:16:49 51°15.6 2°53.868 8.2 321 17.9 100990 57
2009-07-27 07:16:55 51°15.618 2°53.853 7.3 320 17.9 100990 57
2009-07-27 07:17:00 51°15.632 2°53.841 6.7 320 17.9 100990 57
2009-07-27 07:17:04 51°15.643 2°53.831 7.3 321 17.9 100990 57
2009-07-27 07:17:09 51°15.658 2°53.818 7.2 321 17.9 100990 57
2009-07-27 07:17:15 51°15.675 2°53.803 7.1 303 17.9 100990 57
2009-07-27 07:17:20 51°15.689 2°53.79 8.2 320 17.9 101000 57
2009-07-27 07:17:24 51°15.701 2°53.781 7.2 318 17.9 101000 57
2009-07-27 07:17:29 51°15.715 2°53.768 7.8 319 17.9 100990 56
2009-07-27 07:17:35 51°15.733 2°53.753 6.7 300 17.9 100990 56
2009-07-27 07:17:40 51°15.747 2°53.741 7.8 319 17.9 101000 57
2009-07-27 07:17:45 51°15.762 2°53.728 8.6 318 17.9 101000 57
2009-07-27 07:17:49 51°15.773 2°53.718 7.9 318 17.9 101000 58
2009-07-27 07:17:55 51°15.79 2°53.703 8.3 318 17.9 101000 58
2009-07-27 07:18:00 51°15.805 2°53.69 8.1 318 17.9 100990 56
2009-07-27 07:18:05 51°15.819 2°53.678 8.8 318 17.9 100990 56
2009-07-27 07:18:09 51°15.831 2°53.667 7.6 319 17.9 100990 58
2009-07-27 07:18:15 51°15.849 2°53.652 8.4 319 17.9 100990 58
2009-07-27 07:18:20 51°15.863 2°53.639 8.2 318 17.9 100990 57
2009-07-27 07:18:24 51°15.875 2°53.629 8.9 320 17.9 100990 57
2009-07-27 07:18:30 51°15.892 2°53.614 9 319 17.9 101000 57
2009-07-27 07:18:35 51°15.907 2°53.602 8.7 319 17.9 101000 57
2009-07-27 07:18:40 51°15.921 2°53.589 7.5 319 17.8 100990 56
2009-07-27 07:18:45 51°15.936 2°53.576 8.7 319 17.8 100990 56
2009-07-27 07:18:49 51°15.947 2°53.566 8.9 319 17.8 100990 58
2009-07-27 07:18:55 51°15.965 2°53.551 7.9 318 17.8 100990 58
2009-07-27 07:19:00 51°15.979 2°53.538 9.1 318 17.8 100990 58
2009-07-27 07:19:05 51°15.993 2°53.525 7.4 317 17.8 100990 58
2009-07-27 07:19:09 51°16.005 2°53.515 7.4 317 17.8 100990 58
2009-07-27 07:19:14 51°16.019 2°53.502 8.3 318 17.8 100990 58
2009-07-27 07:19:20 51°16.037 2°53.487 8 318 17.8 100990 57
2009-07-27 07:19:25 51°16.051 2°53.474 8.1 306 17.8 100990 57
2009-07-27 07:19:30 51°16.066 2°53.462 7.2 319 17.8 100990 57
2009-07-27 07:19:35 51°16.08 2°53.449 6.9 319 17.8 100990 57
2009-07-27 07:19:40 51°16.095 2°53.436 8.1 319 17.8 100990 58
2009-07-27 07:19:45 51°16.11 2°53.424 8.1 320 17.8 100990 58
2009-07-27 07:19:49 51°16.121 2°53.414 8.1 319 17.8 100990 57
2009-07-27 07:19:54 51°16.136 2°53.401 7 318 17.8 100990 57
2009-07-27 07:19:59 51°16.15 2°53.389 7.8 319 17.8 100990 56
2009-07-27 07:20:05 51°16.168 2°53.374 8.4 318 17.8 100990 56
2009-07-27 07:20:09 51°16.18 2°53.364 8.1 319 17.8 100990 56
2009-07-27 07:20:14 51°16.194 2°53.351 7.1 318 17.8 100990 56
2009-07-27 07:20:19 51°16.208 2°53.338 7.1 320 17.8 100990 56
2009-07-27 07:20:25 51°16.226 2°53.323 8.6 320 17.8 100990 56
2009-07-27 07:20:29 51°16.237 2°53.313 7.4 319 17.8 100990 56
2009-07-27 07:20:35 51°16.254 2°53.297 8.4 307 17.8 100990 56
2009-07-27 07:20:39 51°16.265 2°53.286 8.1 317 17.8 100990 58
2009-07-27 07:20:45 51°16.282 2°53.27 8.2 309 17.8 100990 58
2009-07-27 07:20:49 51°16.294 2°53.259 8.4 319 17.8 100990 58
2009-07-27 07:20:55 51°16.311 2°53.244 6.9 303 17.8 100990 58
2009-07-27 07:20:59 51°16.322 2°53.233 7 320 17.8 100990 58
2009-07-27 07:21:05 51°16.339 2°53.217 7.9 308 17.8 100990 58
2009-07-27 07:21:10 51°16.353 2°53.204 6.7 322 17.8 100990 56
2009-07-27 07:21:15 51°16.367 2°53.191 8 305 17.8 100990 56
2009-07-27 07:21:19 51°16.379 2°53.18 8.1 321 17.8 100990 56
2009-07-27 07:21:25 51°16.396 2°53.164 7.9 308 17.8 100990 56
2009-07-27 07:21:29 51°16.407 2°53.154 7.9 318 17.8 100990 58
2009-07-27 07:21:35 51°16.424 2°53.138 7.6 319 17.8 100990 58
2009-07-27 07:21:39 51°16.436 2°53.127 7.4 319 17.7 100990 57
2009-07-27 07:21:45 51°16.453 2°53.112 6.6 320 17.7 100990 57
2009-07-27 07:21:49 51°16.464 2°53.101 6.6 320 17.7 100990 57
2009-07-27 07:21:55 51°16.481 2°53.085 6.7 304 17.7 100990 57
2009-07-27 07:22:00 51°16.496 2°53.072 6.8 320 17.7 100990 57
2009-07-27 07:22:05 51°16.51 2°53.059 6.9 319 17.7 100990 57
2009-07-27 07:22:09 51°16.521 2°53.049 6.5 320 17.7 100990 57
2009-07-27 07:22:15 51°16.538 2°53.033 7.7 304 17.7 100990 57
2009-07-27 07:22:19 51°16.55 2°53.023 7.5 321 17.7 101000 56
2009-07-27 07:22:25 51°16.567 2°53.008 7.4 321 17.7 101000 56
2009-07-27 07:22:29 51°16.579 2°52.998 7.5 321 17.7 100990 56
2009-07-27 07:22:35 51°16.596 2°52.982 7.5 306 17.7 100990 56
2009-07-27 07:22:39 51°16.608 2°52.972 6.9 321 17.7 100990 57
2009-07-27 07:22:45 51°16.625 2°52.957 7.5 321 17.7 100990 57
2009-07-27 07:22:49 51°16.637 2°52.947 7.3 321 17.7 100990 56
2009-07-27 07:22:55 51°16.654 2°52.931 6.5 320 17.7 100990 56
2009-07-27 07:23:00 51°16.668 2°52.919 7 320 17.7 100990 57
2009-07-27 07:23:05 51°16.683 2°52.906 7.4 302 17.7 100990 57
2009-07-27 07:23:10 51°16.698 2°52.895 7.4 323 17.7 100990 56
2009-07-27 07:23:14 51°16.709 2°52.885 7.3 321 17.7 100990 56
2009-07-27 07:23:20 51°16.727 2°52.87 7.5 321 17.7 100990 57
2009-07-27 07:23:25 51°16.741 2°52.857 7.7 303 17.7 100990 57
2009-07-27 07:23:29 51°16.753 2°52.847 7.7 322 17.7 100990 56
2009-07-27 07:23:34 51°16.767 2°52.834 6.6 322 17.7 100990 56
2009-07-27 07:23:40 51°16.784 2°52.819 7.6 322 17.7 100990 57
2009-07-27 07:23:45 51°16.799 2°52.806 7.6 302 17.7 100990 57
2009-07-27 07:23:49 51°16.81 2°52.796 7.6 322 17.7 100990 56
2009-07-27 07:23:54 51°16.825 2°52.784 7.8 302 17.7 100990 56
2009-07-27 07:24:00 51°16.842 2°52.769 6.6 320 17.7 100990 56
2009-07-27 07:24:05 51°16.856 2°52.756 7.4 322 17.7 100990 56
2009-07-27 07:24:10 51°16.871 2°52.744 7.5 320 17.7 100990 55
2009-07-27 07:24:14 51°16.882 2°52.734 7.8 303 17.7 100990 55
2009-07-27 07:24:20 51°16.9 2°52.721 7.1 321 17.8 100990 56
2009-07-27 07:24:25 51°16.915 2°52.709 7.2 321 17.8 100990 56
2009-07-27 07:24:30 51°16.93 2°52.698 7.4 321 17.7 100990 57
2009-07-27 07:24:34 51°16.942 2°52.689 7.1 321 17.7 100990 57
2009-07-27 07:24:40 51°16.96 2°52.677 6.4 321 17.7 100980 57
2009-07-27 07:24:45 51°16.975 2°52.666 7.1 320 17.7 100980 57
2009-07-27 07:24:49 51°16.987 2°52.658 6.5 321 17.7 100990 57
2009-07-27 07:24:54 51°17.003 2°52.647 6.2 321 17.7 100990 57
2009-07-27 07:24:59 51°17.018 2°52.637 6.7 320 17.8 100990 56
2009-07-27 07:25:05 51°17.036 2°52.625 7.3 319 17.8 100990 56
2009-07-27 07:25:10 51°17.051 2°52.615 6.3 319 17.8 100990 57
2009-07-27 07:25:15 51°17.066 2°52.605 7.5 317 17.8 100990 57
2009-07-27 07:25:20 51°17.082 2°52.595 7 319 17.8 100980 57
2009-07-27 07:25:25 51°17.097 2°52.584 6.8 306 17.8 100980 57
2009-07-27 07:25:30 51°17.112 2°52.574 6.7 317 17.8 100980 57
2009-07-27 07:25:35 51°17.127 2°52.564 7.9 317 17.8 100980 57
2009-07-27 07:25:39 51°17.139 2°52.556 8.1 317 17.8 100990 56
2009-07-27 07:25:45 51°17.158 2°52.544 6.5 321 17.8 100990 56
2009-07-27 07:25:50 51°17.173 2°52.534 6.7 321 17.8 100990 57
2009-07-27 07:25:55 51°17.189 2°52.524 6.7 317 17.8 100990 57
2009-07-27 07:26:00 51°17.204 2°52.514 6.4 318 17.8 100980 56
2009-07-27 07:26:05 51°17.219 2°52.504 7.1 319 17.8 100980 56
2009-07-27 07:26:10 51°17.235 2°52.494 6.4 316 17.8 100980 57
2009-07-27 07:26:14 51°17.247 2°52.487 7 315 17.8 100980 57
2009-07-27 07:26:20 51°17.265 2°52.475 7.4 317 17.8 100980 57
2009-07-27 07:26:25 51°17.281 2°52.465 6.2 318 17.8 100980 57
2009-07-27 07:26:30 51°17.296 2°52.455 7.4 319 17.8 100980 57
2009-07-27 07:26:34 51°17.308 2°52.447 7.2 316 17.8 100980 57
2009-07-27 07:26:40 51°17.327 2°52.435 6.6 318 17.8 100980 55
2009-07-27 07:26:45 51°17.342 2°52.426 7.5 320 17.8 100980 55
2009-07-27 07:26:50 51°17.358 2°52.418 5.8 318 17.8 100980 57
2009-07-27 07:26:54 51°17.371 2°52.414 6.5 318 17.8 100980 57
2009-07-27 07:26:59 51°17.387 2°52.411 5.7 319 17.8 100980 56
2009-07-27 07:27:05 51°17.406 2°52.409 5.9 316 17.8 100980 56
2009-07-27 07:27:10 51°17.423 2°52.406 5.9 318 17.8 100980 55
2009-07-27 07:27:14 51°17.436 2°52.407 6 318 17.8 100980 55
2009-07-27 07:27:19 51°17.452 2°52.407 5.9 317 17.8 100980 55
2009-07-27 07:27:25 51°17.471 2°52.409 5.3 318 17.8 100980 55
2009-07-27 07:27:30 51°17.487 2°52.413 4.9 316 17.8 100980 57
2009-07-27 07:27:35 51°17.504 2°52.416 5.4 303 17.8 100980 57
2009-07-27 07:27:39 51°17.516 2°52.421 4.6 320 17.8 100990 57
2009-07-27 07:27:45 51°17.535 2°52.427 2.6 303 17.8 100990 57
2009-07-27 07:27:50 51°17.551 2°52.434 4.6 320 17.8 100990 57
2009-07-27 07:27:55 51°17.567 2°52.441 5.4 319 17.8 100990 57
2009-07-27 07:28:00 51°17.583 2°52.447 5 319 17.8 100990 55
2009-07-27 07:28:05 51°17.598 2°52.455 5.6 318 17.8 100990 55
2009-07-27 07:28:10 51°17.614 2°52.462 5 319 17.8 100990 57
2009-07-27 07:28:15 51°17.63 2°52.47 5.3 319 17.8 100990 57
2009-07-27 07:28:19 51°17.642 2°52.476 5.3 321 17.8 100990 57
2009-07-27 07:28:25 51°17.661 2°52.486 5.3 317 17.8 100990 57
2009-07-27 07:28:30 51°17.676 2°52.495 5.3 321 17.9 100990 55
2009-07-27 07:28:35 51°17.692 2°52.503 4.5 316 17.9 100990 55
2009-07-27 07:28:40 51°17.706 2°52.515 4.2 317 17.9 100990 55
2009-07-27 07:28:45 51°17.72 2°52.528 4.2 315 17.9 100990 55
2009-07-27 07:28:50 51°17.735 2°52.54 4.8 315 17.9 100990 55
2009-07-27 07:28:54 51°17.745 2°52.552 3.9 302 17.9 100990 55
2009-07-27 07:28:59 51°17.759 2°52.565 4.2 318 17.9 100990 55
2009-07-27 07:29:05 51°17.774 2°52.583 3.3 318 17.9 100990 55
2009-07-27 07:29:10 51°17.787 2°52.599 3.5 320 17.9 100990 57
2009-07-27 07:29:15 51°17.798 2°52.617 3.5 302 17.9 100990 57
2009-07-27 07:29:19 51°17.808 2°52.63 3.6 325 17.8 100990 55
2009-07-27 07:29:25 51°17.821 2°52.653 3.9 327 17.8 100990 55
2009-07-27 07:29:30 51°17.832 2°52.671 3.6 329 17.8 100990 56
2009-07-27 07:29:34 51°17.84 2°52.687 3.5 328 17.8 100990 56
2009-07-27 07:29:39 51°17.85 2°52.707 4 327 17.9 100990 55
2009-07-27 07:29:45 51°17.863 2°52.731 3.6 328 17.9 100990 55
2009-07-27 07:29:50 51°17.872 2°52.751 3.4 328 17.9 101000 55
2009-07-27 07:29:55 51°17.882 2°52.771 3.5 330 17.9 101000 55
2009-07-27 07:29:59 51°17.89 2°52.788 3.5 328 17.9 100990 55
2009-07-27 07:30:05 51°17.901 2°52.813 2.9 329 17.9 100990 55
2009-07-27 07:30:10 51°17.91 2°52.834 3.3 330 17.8 100990 56
2009-07-27 07:30:15 51°17.92 2°52.854 2.9 326 17.8 100990 56
2009-07-27 07:30:19 51°17.927 2°52.871 3 330 17.8 100990 55
2009-07-27 07:30:25 51°17.938 2°52.897 2.9 330 17.8 100990 55
2009-07-27 07:30:30 51°17.948 2°52.918 3 329 17.8 100990 57
2009-07-27 07:30:34 51°17.955 2°52.934 3.6 301 17.8 100990 57
2009-07-27 07:30:39 51°17.964 2°52.955 3.7 330 17.8 100990 56
2009-07-27 07:30:45 51°17.975 2°52.98 3.5 330 17.8 100990 56
2009-07-27 07:30:50 51°17.984 2°53.002 3.6 325 17.8 100990 56
2009-07-27 07:30:54 51°17.992 2°53.019 3.5 328 17.8 100990 56
2009-07-27 07:31:00 51°18.003 2°53.044 3.5 326 17.8 100990 56
2009-07-27 07:31:05 51°18.012 2°53.065 3.2 325 17.8 100990 56
2009-07-27 07:31:10 51°18.021 2°53.086 3.4 326 17.8 100990 55
2009-07-27 07:31:14 51°18.028 2°53.103 3.6 324 17.8 100990 55
2009-07-27 07:31:19 51°18.038 2°53.124 3.7 326 17.9 100990 57
2009-07-27 07:31:25 51°18.049 2°53.149 3.6 325 17.9 100990 57
2009-07-27 07:31:30 51°18.058 2°53.17 3.4 324 17.9 100990 56
2009-07-27 07:31:34 51°18.065 2°53.187 3.3 328 17.9 100990 56
2009-07-27 07:31:39 51°18.074 2°53.208 3.4 328 17.9 100990 57
2009-07-27 07:31:45 51°18.086 2°53.234 3.3 329 17.9 100990 57
2009-07-27 07:31:50 51°18.095 2°53.255 3.4 332 17.9 100990 55
2009-07-27 07:31:55 51°18.104 2°53.276 3.1 324 17.9 100990 55
2009-07-27 07:31:59 51°18.111 2°53.293 3.4 326 17.9 100990 55
2009-07-27 07:32:05 51°18.122 2°53.318 3.3 324 17.9 100990 55
2009-07-27 07:32:10 51°18.132 2°53.339 3.3 324 17.9 100990 57
2009-07-27 07:32:15 51°18.14 2°53.36 3.2 323 17.9 100990 57
2009-07-27 07:32:19 51°18.148 2°53.377 3.5 323 17.9 100990 56
2009-07-27 07:32:25 51°18.158 2°53.403 3.8 322 17.9 100990 56
2009-07-27 07:32:30 51°18.168 2°53.424 3.7 322 17.9 100990 55
2009-07-27 07:32:35 51°18.177 2°53.445 3.4 325 17.9 100990 55
2009-07-27 07:32:39 51°18.184 2°53.462 3.2 327 17.9 100990 56
2009-07-27 07:32:45 51°18.195 2°53.487 3.1 327 17.9 100990 56
2009-07-27 07:32:50 51°18.204 2°53.509 3.2 327 17.9 100990 56
2009-07-27 07:32:54 51°18.211 2°53.526 3.2 301 17.9 100990 56
2009-07-27 07:32:59 51°18.22 2°53.547 3.3 329 17.9 100990 55
2009-07-27 07:33:05 51°18.231 2°53.573 3.3 329 17.9 100990 55
2009-07-27 07:33:10 51°18.24 2°53.594 3.1 328 17.9 100990 56
2009-07-27 07:33:15 51°18.249 2°53.615 3.5 328 17.9 100990 56
2009-07-27 07:33:19 51°18.256 2°53.632 3.2 327 17.9 100990 56
2009-07-27 07:33:25 51°18.267 2°53.658 3.7 327 17.9 100990 56
2009-07-27 07:33:30 51°18.276 2°53.679 3.6 326 17.9 100990 55
2009-07-27 07:33:34 51°18.283 2°53.696 3.3 328 17.9 100990 55
2009-07-27 07:33:39 51°18.292 2°53.717 3.3 325 17.9 100990 57
2009-07-27 07:33:45 51°18.303 2°53.742 3.1 331 17.9 100990 57
2009-07-27 07:33:50 51°18.312 2°53.764 3.6 331 17.9 100990 55
2009-07-27 07:33:54 51°18.32 2°53.78 3.4 329 17.9 100990 55
2009-07-27 07:33:59 51°18.329 2°53.802 3.1 330 17.9 100990 55
2009-07-27 07:34:05 51°18.339 2°53.827 3.4 328 17.9 100990 55
2009-07-27 07:34:10 51°18.348 2°53.848 3.5 328 17.9 100990 55
2009-07-27 07:34:15 51°18.357 2°53.87 3.8 324 17.9 100990 55
2009-07-27 07:34:19 51°18.364 2°53.887 3.5 324 17.9 100990 56
2009-07-27 07:34:25 51°18.375 2°53.912 3.8 301 17.9 100990 56
2009-07-27 07:34:30 51°18.384 2°53.934 3.2 327 18 100990 56
2009-07-27 07:34:35 51°18.393 2°53.955 3.3 324 18 100990 56
2009-07-27 07:34:39 51°18.399 2°53.973 3.4 326 18 100980 56
2009-07-27 07:34:45 51°18.41 2°53.999 3.3 325 18 100980 56
2009-07-27 07:34:50 51°18.418 2°54.02 3.4 325 18 100990 57
2009-07-27 07:34:55 51°18.427 2°54.042 3.2 324 18 100990 57
2009-07-27 07:34:59 51°18.434 2°54.06 3.3 326 18 100990 55
2009-07-27 07:35:05 51°18.444 2°54.086 3.2 327 18 100990 55
2009-07-27 07:35:10 51°18.453 2°54.107 3.1 327 18 100990 55
2009-07-27 07:35:15 51°18.462 2°54.129 3.9 330 18 100990 55
2009-07-27 07:35:20 51°18.47 2°54.15 3.6 329 18 100990 57
2009-07-27 07:35:25 51°18.479 2°54.172 3.4 330 18 100990 57
2009-07-27 07:35:30 51°18.487 2°54.194 3.5 330 18 100990 55
2009-07-27 07:35:34 51°18.494 2°54.211 3.7 332 18 100990 55
2009-07-27 07:35:39 51°18.503 2°54.233 3.8 332 18 100980 55
2009-07-27 07:35:45 51°18.513 2°54.259 3.2 330 18 100980 55
2009-07-27 07:35:50 51°18.522 2°54.281 3.2 329 18 100990 56
2009-07-27 07:35:55 51°18.531 2°54.303 3.2 330 18 100990 56
2009-07-27 07:35:59 51°18.538 2°54.32 3.6 330 18 100980 55
2009-07-27 07:36:05 51°18.548 2°54.346 3.8 330 18 100980 55
2009-07-27 07:36:10 51°18.557 2°54.367 3.5 330 18 100980 55
2009-07-27 07:36:14 51°18.564 2°54.385 3 331 18 100980 55
2009-07-27 07:36:19 51°18.572 2°54.407 3.5 328 18 100980 56
2009-07-27 07:36:25 51°18.583 2°54.432 3.2 329 18 100980 56
2009-07-27 07:36:30 51°18.591 2°54.454 3 329 18 100990 56
2009-07-27 07:36:35 51°18.6 2°54.476 3.6 331 18 100990 56
2009-07-27 07:36:39 51°18.606 2°54.493 3.8 326 18 100980 56
2009-07-27 07:36:45 51°18.617 2°54.519 3.5 329 18 100980 56
2009-07-27 07:36:50 51°18.626 2°54.54 3.9 330 18 100980 56
2009-07-27 07:36:55 51°18.635 2°54.562 3.8 331 18 100980 56
2009-07-27 07:37:00 51°18.643 2°54.584 3.8 329 18 100990 56
2009-07-27 07:37:05 51°18.652 2°54.605 3.9 329 18 100990 56
2009-07-27 07:37:10 51°18.661 2°54.627 3.6 329 18.1 100980 56
2009-07-27 07:37:15 51°18.67 2°54.648 3.9 327 18.1 100980 56
2009-07-27 07:37:20 51°18.679 2°54.669 3.8 329 18.1 100980 55
2009-07-27 07:37:25 51°18.688 2°54.69 3.6 285 18.1 100980 55
2009-07-27 07:37:30 51°18.697 2°54.711 3.8 331 18.1 100990 56
2009-07-27 07:37:35 51°18.706 2°54.732 3.6 328 18.1 100990 56
2009-07-27 07:37:40 51°18.715 2°54.753 3.9 327 18 100990 56
2009-07-27 07:37:45 51°18.723 2°54.774 3.3 330 18 100990 56
2009-07-27 07:37:50 51°18.732 2°54.796 3.3 330 18 100980 56
2009-07-27 07:37:55 51°18.741 2°54.817 3.5 330 18 100980 56
2009-07-27 07:38:00 51°18.75 2°54.838 3.2 328 18 100990 56
2009-07-27 07:38:05 51°18.759 2°54.859 3.2 328 18 100990 56
2009-07-27 07:38:10 51°18.767 2°54.88 3.1 328 18 100990 55
2009-07-27 07:38:14 51°18.775 2°54.897 3.2 330 18 100990 55
2009-07-27 07:38:19 51°18.783 2°54.919 3.3 329 18 100980 56
2009-07-27 07:38:25 51°18.794 2°54.944 3.4 330 18 100980 56
2009-07-27 07:38:30 51°18.802 2°54.966 3.7 330 18 100990 56
2009-07-27 07:38:35 51°18.811 2°54.987 3.5 330 18 100990 56
2009-07-27 07:38:39 51°18.818 2°55.004 3.4 328 18 100990 55
2009-07-27 07:38:45 51°18.829 2°55.03 3.7 330 18 100990 55
2009-07-27 07:38:50 51°18.837 2°55.051 3.7 329 18 100990 55
2009-07-27 07:38:55 51°18.846 2°55.073 3.7 329 18 100990 55
2009-07-27 07:38:59 51°18.853 2°55.09 4 331 18 100980 55
2009-07-27 07:39:05 51°18.863 2°55.116 4.3 330 18 100980 55
2009-07-27 07:39:10 51°18.872 2°55.137 4.1 329 18 100990 56
2009-07-27 07:39:15 51°18.881 2°55.158 3.7 328 18 100990 56
2009-07-27 07:39:19 51°18.888 2°55.175 4.2 329 18.1 100980 55
2009-07-27 07:39:25 51°18.898 2°55.201 3.6 330 18.1 100980 55
2009-07-27 07:39:30 51°18.907 2°55.222 4 329 18 100980 56
2009-07-27 07:39:35 51°18.916 2°55.244 3.9 331 18 100980 56
2009-07-27 07:39:40 51°18.924 2°55.265 3.6 331 18 100980 56
2009-07-27 07:39:45 51°18.933 2°55.286 3.2 331 18 100980 56
2009-07-27 07:39:50 51°18.942 2°55.308 3.5 331 18 100980 55
2009-07-27 07:39:54 51°18.949 2°55.325 3.3 331 18 100980 55
2009-07-27 07:40:00 51°18.959 2°55.35 4 331 18.1 100990 55
2009-07-27 07:40:05 51°18.968 2°55.372 3.8 331 18.1 100990 55
2009-07-27 07:40:10 51°18.977 2°55.393 3.9 331 18 100990 55
2009-07-27 07:40:15 51°18.986 2°55.414 4.1 331 18 100990 55
2009-07-27 07:40:20 51°18.994 2°55.436 3.9 330 18 100990 56
2009-07-27 07:40:25 51°19.003 2°55.457 3.6 329 18 100990 56
2009-07-27 07:40:30 51°19.012 2°55.478 3.7 329 18.1 100990 56
2009-07-27 07:40:34 51°19.019 2°55.495 3.4 331 18.1 100990 56
2009-07-27 07:40:39 51°19.028 2°55.517 3.6 329 18.1 100990 56
2009-07-27 07:40:45 51°19.039 2°55.541 3.4 330 18.1 100990 56
2009-07-27 07:40:50 51°19.048 2°55.562 3.4 330 18.1 100990 56
2009-07-27 07:40:55 51°19.057 2°55.583 3.8 329 18.1 100990 56
2009-07-27 07:40:59 51°19.064 2°55.6 3.4 328 18.1 100990 55
2009-07-27 07:41:05 51°19.075 2°55.625 3.3 327 18.1 100990 55
2009-07-27 07:41:10 51°19.084 2°55.646 2.9 327 18.1 100990 57
2009-07-27 07:41:15 51°19.092 2°55.667 2.9 328 18.1 100990 57
2009-07-27 07:41:19 51°19.1 2°55.684 3.2 330 18.1 100990 57
2009-07-27 07:41:25 51°19.11 2°55.71 3.4 276 18.1 100990 57
2009-07-27 07:41:30 51°19.119 2°55.731 3.1 330 18.1 100980 56
2009-07-27 07:41:35 51°19.128 2°55.752 3.7 328 18.1 100980 56
2009-07-27 07:41:39 51°19.136 2°55.768 3.5 328 18.1 100990 56
2009-07-27 07:41:45 51°19.146 2°55.793 3.1 328 18.1 100990 56
2009-07-27 07:41:50 51°19.155 2°55.814 3.3 326 18.1 100990 56
2009-07-27 07:41:55 51°19.164 2°55.835 3.4 330 18.1 100990 56
2009-07-27 07:42:00 51°19.173 2°55.856 3.2 330 18.1 100990 55
2009-07-27 07:42:05 51°19.183 2°55.876 3.8 332 18.1 100990 55
2009-07-27 07:42:10 51°19.192 2°55.897 3.7 333 18.1 100990 56
2009-07-27 07:42:14 51°19.199 2°55.914 3.7 332 18.1 100990 56
2009-07-27 07:42:19 51°19.208 2°55.934 3.7 333 18.1 100980 56
2009-07-27 07:42:25 51°19.218 2°55.96 4.1 331 18.1 100980 56
2009-07-27 07:42:30 51°19.227 2°55.981 3.6 333 18.1 100990 56
2009-07-27 07:42:35 51°19.236 2°56.002 3.5 331 18.1 100990 56
2009-07-27 07:42:39 51°19.243 2°56.019 3.5 333 18.1 100990 55
2009-07-27 07:42:45 51°19.253 2°56.045 3.2 332 18.1 100990 55
2009-07-27 07:42:50 51°19.261 2°56.066 3.4 331 18.2 100990 57
2009-07-27 07:42:54 51°19.269 2°56.083 3.6 332 18.2 100990 57
2009-07-27 07:42:59 51°19.278 2°56.104 3.6 331 18.2 100980 57
2009-07-27 07:43:05 51°19.288 2°56.129 3.4 330 18.2 100980 57
2009-07-27 07:43:10 51°19.296 2°56.151 3.3 330 18.1 100980 55
2009-07-27 07:43:14 51°19.304 2°56.168 3.9 331 18.1 100980 55
2009-07-27 07:43:19 51°19.312 2°56.189 4.1 329 18.1 100980 56
2009-07-27 07:43:25 51°19.323 2°56.214 3.7 331 18.1 100980 56
2009-07-27 07:43:30 51°19.332 2°56.235 3.7 329 18.1 100980 56
2009-07-27 07:43:35 51°19.34 2°56.257 3.8 327 18.1 100980 56
2009-07-27 07:43:39 51°19.347 2°56.274 3.7 328 18.1 100980 55
2009-07-27 07:43:45 51°19.358 2°56.299 4.6 329 18.1 100980 55
2009-07-27 07:43:50 51°19.367 2°56.32 4.5 331 18.1 100980 56
2009-07-27 07:43:55 51°19.375 2°56.341 4.3 330 18.1 100980 56
2009-07-27 07:43:59 51°19.383 2°56.358 3.9 330 18.1 100980 57
2009-07-27 07:44:05 51°19.394 2°56.383 3.3 328 18.1 100980 57
2009-07-27 07:44:10 51°19.402 2°56.404 3.3 331 18.1 100980 56
2009-07-27 07:44:15 51°19.411 2°56.424 3.9 332 18.1 100980 56
2009-07-27 07:44:19 51°19.418 2°56.441 4.1 333 18.1 100980 56
2009-07-27 07:44:25 51°19.429 2°56.466 3.9 332 18.1 100980 56
2009-07-27 07:44:30 51°19.438 2°56.488 3.6 333 18.1 100980 57
2009-07-27 07:44:35 51°19.446 2°56.509 4 330 18.1 100980 57
2009-07-27 07:44:39 51°19.453 2°56.526 4.2 331 18.2 100980 57
2009-07-27 07:44:45 51°19.464 2°56.551 4 332 18.2 100980 57
2009-07-27 07:44:50 51°19.473 2°56.573 3.8 331 18.2 100990 56
2009-07-27 07:44:54 51°19.479 2°56.59 4.1 332 18.2 100990 56
2009-07-27 07:45:00 51°19.49 2°56.615 4.3 332 18.1 100990 57
2009-07-27 07:45:05 51°19.498 2°56.636 3.9 331 18.1 100990 57
2009-07-27 07:45:10 51°19.507 2°56.657 3.9 335 18.2 100980 56
2009-07-27 07:45:15 51°19.516 2°56.678 3.6 329 18.2 100980 56
2009-07-27 07:45:19 51°19.523 2°56.695 4 329 18.2 100990 56
2009-07-27 07:45:25 51°19.533 2°56.721 4.1 277 18.2 100990 56
2009-07-27 07:45:30 51°19.542 2°56.742 3.9 328 18.2 100990 56
2009-07-27 07:45:35 51°19.551 2°56.763 3.9 327 18.2 100990 56
2009-07-27 07:45:39 51°19.558 2°56.78 3.6 330 18.2 100990 56
2009-07-27 07:45:45 51°19.568 2°56.805 4.1 329 18.2 100990 56
2009-07-27 07:45:50 51°19.577 2°56.826 3.4 330 18.2 100980 56
2009-07-27 07:45:55 51°19.586 2°56.847 3.7 326 18.2 100980 56
2009-07-27 07:45:59 51°19.593 2°56.864 4.1 326 18.2 100980 56
2009-07-27 07:46:05 51°19.603 2°56.89 3.4 325 18.2 100980 56
2009-07-27 07:46:10 51°19.612 2°56.911 3.4 326 18.1 100990 56
2009-07-27 07:46:15 51°19.62 2°56.932 3.4 325 18.1 100990 56
2009-07-27 07:46:20 51°19.629 2°56.953 3.3 327 18.1 100990 57
2009-07-27 07:46:25 51°19.638 2°56.974 3.5 325 18.1 100990 57
2009-07-27 07:46:30 51°19.647 2°56.995 3.5 326 18.1 100980 57
2009-07-27 07:46:35 51°19.656 2°57.016 3 327 18.1 100980 57
2009-07-27 07:46:40 51°19.664 2°57.038 3.4 326 18.1 100980 56
2009-07-27 07:46:45 51°19.673 2°57.059 3.7 328 18.1 100980 56
2009-07-27 07:46:50 51°19.682 2°57.08 3.8 329 18.1 100980 56
2009-07-27 07:46:55 51°19.69 2°57.101 3.3 301 18.1 100980 56
2009-07-27 07:47:00 51°19.699 2°57.122 3.5 326 18.1 100980 56
2009-07-27 07:47:05 51°19.708 2°57.143 2.9 329 18.1 100980 56
2009-07-27 07:47:10 51°19.716 2°57.165 3.4 331 18.1 100980 55
2009-07-27 07:47:14 51°19.724 2°57.181 3.6 331 18.1 100980 55
2009-07-27 07:47:20 51°19.734 2°57.206 3.6 330 18.1 100980 55
2009-07-27 07:47:25 51°19.743 2°57.227 3.8 328 18.1 100980 55
2009-07-27 07:47:30 51°19.752 2°57.248 3.5 328 18.1 100980 55
2009-07-27 07:47:35 51°19.761 2°57.269 3.5 326 18.1 100980 55
2009-07-27 07:47:39 51°19.768 2°57.286 3.3 329 18.1 100980 56
2009-07-27 07:47:45 51°19.777 2°57.312 3.2 331 18.1 100980 56
2009-07-27 07:47:50 51°19.785 2°57.334 3.5 329 18.1 100980 55
2009-07-27 07:47:55 51°19.793 2°57.356 3.6 333 18.1 100980 55
2009-07-27 07:47:59 51°19.799 2°57.374 3.6 330 18.1 100980 56
2009-07-27 07:48:05 51°19.808 2°57.4 3.6 333 18.1 100980 56
2009-07-27 07:48:10 51°19.815 2°57.422 3.3 330 18.1 100980 56
2009-07-27 07:48:15 51°19.822 2°57.444 3.5 333 18.1 100980 56
2009-07-27 07:48:19 51°19.828 2°57.462 3.4 332 18.1 100980 56
2009-07-27 07:48:25 51°19.836 2°57.489 3.3 335 18.1 100980 56
2009-07-27 07:48:30 51°19.843 2°57.512 3.2 332 18.1 100980 55
2009-07-27 07:48:35 51°19.85 2°57.534 3 331 18.1 100980 55
2009-07-27 07:48:40 51°19.857 2°57.557 3.2 334 18.1 100980 55
2009-07-27 07:48:45 51°19.864 2°57.579 3.3 328 18.1 100980 55
2009-07-27 07:48:50 51°19.871 2°57.602 3.2 330 18.1 100980 56
2009-07-27 07:48:54 51°19.877 2°57.62 3.4 331 18.1 100980 56
2009-07-27 07:48:59 51°19.884 2°57.643 3.5 330 18.1 100980 55
2009-07-27 07:49:05 51°19.892 2°57.67 3.3 329 18.1 100980 55
2009-07-27 07:49:10 51°19.899 2°57.693 3.2 329 18.1 100980 55
2009-07-27 07:49:15 51°19.906 2°57.715 3.2 301 18.1 100980 55
2009-07-27 07:49:19 51°19.911 2°57.733 3.5 329 18.1 100980 55
2009-07-27 07:49:25 51°19.92 2°57.76 3.5 327 18.1 100980 55
2009-07-27 07:49:30 51°19.926 2°57.783 3.1 329 18.1 100980 56
2009-07-27 07:49:35 51°19.934 2°57.805 3.6 327 18.1 100980 56
2009-07-27 07:49:40 51°19.94 2°57.828 3.1 328 18.1 100980 55
2009-07-27 07:49:45 51°19.947 2°57.85 3.1 327 18.1 100980 55
2009-07-27 07:49:50 51°19.954 2°57.873 3.1 330 18.1 100980 56
2009-07-27 07:49:55 51°19.961 2°57.895 3.6 332 18.1 100980 56
2009-07-27 07:49:59 51°19.966 2°57.914 3.9 330 18.1 100980 55
2009-07-27 07:50:05 51°19.975 2°57.941 3.6 330 18.1 100980 55
2009-07-27 07:50:10 51°19.982 2°57.963 4 329 18.1 100980 57
2009-07-27 07:50:15 51°19.989 2°57.986 4.1 327 18.1 100980 57
2009-07-27 07:50:19 51°19.994 2°58.004 4.2 327 18.1 100980 57
2009-07-27 07:50:25 51°20.003 2°58.031 4.1 328 18.1 100980 57
2009-07-27 07:50:30 51°20.01 2°58.053 4 327 18.1 100970 56
2009-07-27 07:50:35 51°20.017 2°58.075 4.1 329 18.1 100970 56
2009-07-27 07:50:40 51°20.024 2°58.098 3.6 328 18.2 100980 55
2009-07-27 07:50:45 51°20.031 2°58.12 3.6 328 18.2 100980 55
2009-07-27 07:50:50 51°20.038 2°58.143 3.8 326 18.1 100980 57
2009-07-27 07:50:55 51°20.045 2°58.165 3.4 329 18.1 100980 57
2009-07-27 07:50:59 51°20.05 2°58.183 3.4 327 18.1 100980 55
2009-07-27 07:51:05 51°20.058 2°58.211 3.3 303 18.1 100980 55
2009-07-27 07:51:10 51°20.065 2°58.233 3.5 330 18.1 100980 55
2009-07-27 07:51:15 51°20.072 2°58.256 3.7 330 18.1 100980 55
2009-07-27 07:51:20 51°20.079 2°58.278 4.1 330 18.1 100980 56
2009-07-27 07:51:25 51°20.086 2°58.301 3.7 285 18.1 100980 56
2009-07-27 07:51:30 51°20.093 2°58.323 4 330 18.1 100980 56
2009-07-27 07:51:35 51°20.1 2°58.345 3.9 329 18.1 100980 56
2009-07-27 07:51:39 51°20.105 2°58.363 3.4 331 18.2 100970 56
2009-07-27 07:51:45 51°20.113 2°58.391 3.3 330 18.2 100970 56
2009-07-27 07:51:50 51°20.12 2°58.413 3.3 332 18.2 100980 55
2009-07-27 07:51:55 51°20.127 2°58.436 3.4 332 18.2 100980 55
2009-07-27 07:51:59 51°20.132 2°58.454 3.3 330 18.2 100980 56
2009-07-27 07:52:05 51°20.14 2°58.481 3.8 330 18.2 100980 56
2009-07-27 07:52:10 51°20.147 2°58.503 3.4 330 18.1 100980 56
2009-07-27 07:52:15 51°20.154 2°58.526 3.8 331 18.1 100980 56
2009-07-27 07:52:19 51°20.159 2°58.544 3.7 328 18.1 100980 56
2009-07-27 07:52:25 51°20.168 2°58.571 3.6 301 18.1 100980 56
2009-07-27 07:52:30 51°20.174 2°58.594 3.6 329 18.2 100980 55
2009-07-27 07:52:35 51°20.181 2°58.616 3.9 329 18.2 100980 55
2009-07-27 07:52:39 51°20.187 2°58.634 4 330 18.1 100980 57
2009-07-27 07:52:45 51°20.195 2°58.661 3.6 329 18.1 100980 57
2009-07-27 07:52:50 51°20.202 2°58.684 3.9 331 18.2 100980 56
2009-07-27 07:52:55 51°20.209 2°58.706 3.5 331 18.2 100980 56
2009-07-27 07:52:59 51°20.215 2°58.724 3.8 330 18.1 100980 56
2009-07-27 07:53:05 51°20.221 2°58.752 3.5 304 18.1 100980 56
2009-07-27 07:53:10 51°20.228 2°58.775 3.4 333 18.1 100970 56
2009-07-27 07:53:15 51°20.233 2°58.798 3.7 327 18.1 100970 56
2009-07-27 07:53:19 51°20.238 2°58.816 3.9 331 18.1 100970 55
2009-07-27 07:53:25 51°20.245 2°58.845 3.3 285 18.1 100970 55
2009-07-27 07:53:30 51°20.251 2°58.868 3.3 332 18.2 100970 55
2009-07-27 07:53:34 51°20.255 2°58.886 3.5 334 18.2 100970 55
2009-07-27 07:53:40 51°20.261 2°58.914 3.6 333 18.2 100980 57
2009-07-27 07:53:45 51°20.266 2°58.938 2.6 333 18.2 100980 57
2009-07-27 07:53:50 51°20.271 2°58.962 3.2 327 18.2 100970 55
2009-07-27 07:53:54 51°20.274 2°58.98 3.2 329 18.2 100970 55
2009-07-27 07:54:00 51°20.28 2°59.009 3.1 330 18.2 100970 56
2009-07-27 07:54:05 51°20.285 2°59.033 3.6 330 18.2 100970 56
2009-07-27 07:54:10 51°20.289 2°59.057 3.2 330 18.2 100980 56
2009-07-27 07:54:15 51°20.294 2°59.08 3.5 331 18.2 100980 56
2009-07-27 07:54:19 51°20.297 2°59.099 3.2 330 18.2 100970 56
2009-07-27 07:54:25 51°20.302 2°59.128 3.6 329 18.2 100970 56
2009-07-27 07:54:30 51°20.307 2°59.152 3.7 330 18.2 100980 56
2009-07-27 07:54:35 51°20.311 2°59.175 3.4 332 18.2 100980 56
2009-07-27 07:54:39 51°20.315 2°59.195 3.2 329 18.2 100970 55
2009-07-27 07:54:45 51°20.32 2°59.223 3.5 330 18.2 100970 55
2009-07-27 07:54:50 51°20.325 2°59.247 3.6 330 18.2 100970 57
2009-07-27 07:54:55 51°20.329 2°59.271 3.9 332 18.2 100970 57
2009-07-27 07:55:00 51°20.334 2°59.294 3.3 331 18.2 100980 56
2009-07-27 07:55:05 51°20.338 2°59.318 3.6 333 18.2 100980 56
2009-07-27 07:55:10 51°20.342 2°59.342 3.1 333 18.2 100970 57
2009-07-27 07:55:15 51°20.346 2°59.366 3.3 331 18.2 100970 57
2009-07-27 07:55:20 51°20.35 2°59.39 3.4 332 18.2 100970 56
2009-07-27 07:55:25 51°20.354 2°59.414 3.1 286 18.2 100970 56
2009-07-27 07:55:30 51°20.358 2°59.438 3.3 329 18.2 100970 57
2009-07-27 07:55:35 51°20.362 2°59.461 3 333 18.2 100970 57
2009-07-27 07:55:40 51°20.367 2°59.485 3.1 332 18.2 100970 55
2009-07-27 07:55:45 51°20.371 2°59.509 3.2 334 18.2 100970 55
2009-07-27 07:55:50 51°20.375 2°59.533 3.5 333 18.2 100970 55
2009-07-27 07:55:55 51°20.379 2°59.557 3.2 334 18.2 100970 55
2009-07-27 07:55:59 51°20.382 2°59.576 3.2 333 18.2 100970 57
2009-07-27 07:56:05 51°20.387 2°59.605 2.6 332 18.2 100970 57
2009-07-27 07:56:10 51°20.391 2°59.629 3.1 335 18.2 100980 56
2009-07-27 07:56:15 51°20.395 2°59.652 3.3 336 18.2 100980 56
2009-07-27 07:56:19 51°20.398 2°59.672 3.2 332 18.2 100980 55
2009-07-27 07:56:25 51°20.403 2°59.7 2.8 333 18.2 100980 55
2009-07-27 07:56:30 51°20.408 2°59.724 3.2 335 18.2 100970 56
2009-07-27 07:56:35 51°20.411 2°59.748 2.9 336 18.2 100970 56
2009-07-27 07:56:39 51°20.415 2°59.767 3.2 334 18.2 100980 57
2009-07-27 07:56:45 51°20.42 2°59.796 3.3 334 18.2 100980 57
2009-07-27 07:56:50 51°20.424 2°59.82 3.4 333 18.2 100970 58
2009-07-27 07:56:55 51°20.428 2°59.843 3.4 331 18.2 100970 58
2009-07-27 07:56:59 51°20.432 2°59.862 3.3 331 18.3 100980 57
2009-07-27 07:57:05 51°20.437 2°59.891 3.2 331 18.3 100980 57
2009-07-27 07:57:10 51°20.442 2°59.914 3.3 334 18.3 100980 57
2009-07-27 07:57:15 51°20.446 2°59.938 3.6 333 18.3 100980 57
2009-07-27 07:57:19 51°20.45 2°59.957 3.3 332 18.3 100970 56
2009-07-27 07:57:25 51°20.455 2°59.985 3.1 278 18.3 100970 56
2009-07-27 07:57:30 51°20.46 3°0.009 3.1 332 18.3 100980 57
2009-07-27 07:57:35 51°20.464 3°0.033 3.1 332 18.3 100980 57
2009-07-27 07:57:39 51°20.468 3°0.051 3.3 332 18.3 100980 56
2009-07-27 07:57:45 51°20.474 3°0.08 3.4 332 18.3 100980 56
2009-07-27 07:57:50 51°20.478 3°0.103 2.8 333 18.3 100980 57
2009-07-27 07:57:55 51°20.483 3°0.127 3.4 337 18.3 100980 57
2009-07-27 07:58:00 51°20.487 3°0.15 2.9 336 18.3 100980 57
2009-07-27 07:58:05 51°20.492 3°0.174 3.5 337 18.3 100980 57
2009-07-27 07:58:10 51°20.496 3°0.197 3.1 333 18.3 100980 56
2009-07-27 07:58:14 51°20.5 3°0.216 3.3 337 18.3 100980 56
2009-07-27 07:58:20 51°20.505 3°0.244 3.5 336 18.3 100980 56
2009-07-27 07:58:25 51°20.51 3°0.268 2.8 335 18.3 100980 56
2009-07-27 07:58:30 51°20.514 3°0.291 3.2 337 18.3 100980 56
2009-07-27 07:58:35 51°20.518 3°0.315 3.1 335 18.3 100980 56
2009-07-27 07:58:40 51°20.523 3°0.339 3.5 334 18.3 100980 57
2009-07-27 07:58:45 51°20.527 3°0.362 3.3 335 18.3 100980 57
2009-07-27 07:58:50 51°20.531 3°0.386 3.2 337 18.3 100970 57
2009-07-27 07:58:55 51°20.536 3°0.41 3.6 334 18.3 100970 57
2009-07-27 07:58:59 51°20.539 3°0.429 3.8 330 18.3 100980 57
2009-07-27 07:59:05 51°20.544 3°0.457 3.8 332 18.3 100980 57
2009-07-27 07:59:10 51°20.548 3°0.481 3.8 332 18.3 100980 57
2009-07-27 07:59:15 51°20.552 3°0.505 3.5 332 18.3 100980 57
2009-07-27 07:59:19 51°20.555 3°0.524 3.1 330 18.3 100980 56
2009-07-27 07:59:25 51°20.56 3°0.553 3 284 18.3 100980 56
2009-07-27 07:59:30 51°20.564 3°0.577 3.3 327 18.3 100980 57
2009-07-27 07:59:35 51°20.568 3°0.601 3.6 331 18.3 100980 57
2009-07-27 07:59:39 51°20.571 3°0.62 3.6 329 18.3 100980 57
2009-07-27 07:59:45 51°20.576 3°0.649 3.5 329 18.3 100980 57
2009-07-27 07:59:50 51°20.58 3°0.672 3.4 328 18.3 100980 57
2009-07-27 07:59:55 51°20.583 3°0.696 3.4 329 18.3 100980 57
2009-07-27 07:59:59 51°20.587 3°0.715 3.7 330 18.3 100980 57
2009-07-27 08:00:05 51°20.591 3°0.744 3.1 329 18.3 100980 57
2009-07-27 08:00:10 51°20.595 3°0.768 2.8 329 18.3 100980 56
2009-07-27 08:00:15 51°20.599 3°0.792 3.1 329 18.3 100980 56
2009-07-27 08:00:20 51°20.603 3°0.816 3.3 327 18.3 100980 57
2009-07-27 08:00:25 51°20.607 3°0.839 3.3 327 18.3 100980 57
2009-07-27 08:00:30 51°20.612 3°0.863 2.7 328 18.3 100980 57
2009-07-27 08:00:35 51°20.616 3°0.887 3.4 327 18.3 100980 57
2009-07-27 08:00:40 51°20.62 3°0.91 3.5 327 18.3 100980 56
2009-07-27 08:00:45 51°20.624 3°0.934 3.3 329 18.3 100980 56
2009-07-27 08:00:50 51°20.628 3°0.958 3.2 329 18.3 100980 57
2009-07-27 08:00:55 51°20.632 3°0.981 3.2 328 18.3 100980 57
2009-07-27 08:01:00 51°20.636 3°1.005 2.9 331 18.3 100980 56
2009-07-27 08:01:05 51°20.64 3°1.029 3.3 330 18.3 100980 56
2009-07-27 08:01:10 51°20.644 3°1.053 3.3 331 18.2 100980 57
2009-07-27 08:01:15 51°20.649 3°1.076 3 333 18.2 100980 57
2009-07-27 08:01:19 51°20.652 3°1.095 3 332 18.3 100970 58
2009-07-27 08:01:25 51°20.657 3°1.123 2.8 285 18.3 100970 58
2009-07-27 08:01:30 51°20.661 3°1.147 3.2 333 18.3 100980 58
2009-07-27 08:01:35 51°20.666 3°1.171 3.1 333 18.3 100980 58
2009-07-27 08:01:40 51°20.67 3°1.194 2.8 336 18.3 100980 57
2009-07-27 08:01:45 51°20.674 3°1.218 2.9 334 18.3 100980 57
2009-07-27 08:01:50 51°20.678 3°1.242 3.1 336 18.2 100980 57
2009-07-27 08:01:55 51°20.682 3°1.265 2.7 336 18.2 100980 57
2009-07-27 08:01:59 51°20.686 3°1.284 2.6 336 18.2 100970 57
2009-07-27 08:02:05 51°20.691 3°1.313 2.7 334 18.2 100970 57
2009-07-27 08:02:10 51°20.695 3°1.336 2.5 333 18.3 100980 56
2009-07-27 08:02:15 51°20.7 3°1.36 2.5 334 18.3 100980 56
2009-07-27 08:02:19 51°20.703 3°1.378 2.7 334 18.3 100970 56
2009-07-27 08:02:25 51°20.708 3°1.407 2.8 332 18.3 100970 56
2009-07-27 08:02:30 51°20.712 3°1.43 2.6 331 18.3 100970 56
2009-07-27 08:02:35 51°20.717 3°1.454 2.5 333 18.3 100970 56
2009-07-27 08:02:40 51°20.721 3°1.477 2.7 333 18.2 100970 57
2009-07-27 08:02:45 51°20.726 3°1.5 3.2 333 18.2 100970 57
2009-07-27 08:02:50 51°20.73 3°1.524 2.7 330 18.3 100980 56
2009-07-27 08:02:55 51°20.735 3°1.547 3 330 18.3 100980 56
2009-07-27 08:03:00 51°20.739 3°1.57 2.9 331 18.3 100980 57
2009-07-27 08:03:05 51°20.744 3°1.593 2.7 331 18.3 100980 57
2009-07-27 08:03:10 51°20.748 3°1.616 2.4 330 18.3 100970 58
2009-07-27 08:03:15 51°20.753 3°1.639 2.6 330 18.3 100970 58
2009-07-27 08:03:20 51°20.758 3°1.662 2.7 332 18.3 100980 57
2009-07-27 08:03:25 51°20.762 3°1.686 2.6 277 18.3 100980 57
2009-07-27 08:03:30 51°20.768 3°1.708 2.7 328 18.3 100970 56
2009-07-27 08:03:35 51°20.772 3°1.731 2.4 328 18.3 100970 56
2009-07-27 08:03:39 51°20.776 3°1.75 2.6 329 18.3 100970 56
2009-07-27 08:03:45 51°20.782 3°1.777 2.7 329 18.3 100970 56
2009-07-27 08:03:50 51°20.787 3°1.8 2.7 324 18.3 100980 56
2009-07-27 08:03:55 51°20.792 3°1.822 2.5 327 18.3 100980 56
2009-07-27 08:04:00 51°20.797 3°1.845 2.7 322 18.3 100970 56
2009-07-27 08:04:05 51°20.802 3°1.867 2.7 303 18.3 100970 56
2009-07-27 08:04:10 51°20.808 3°1.889 2.6 330 18.3 100970 56
2009-07-27 08:04:15 51°20.813 3°1.912 2.8 326 18.3 100970 56
2009-07-27 08:04:20 51°20.818 3°1.934 2.6 333 18.3 100980 57
2009-07-27 08:04:25 51°20.824 3°1.956 2.7 331 18.3 100980 57
2009-07-27 08:04:30 51°20.829 3°1.978 2.9 328 18.3 100980 57
2009-07-27 08:04:35 51°20.834 3°2.001 2.6 306 18.3 100980 57
2009-07-27 08:04:39 51°20.838 3°2.018 2.4 327 18.3 100970 57
2009-07-27 08:04:45 51°20.844 3°2.045 2.6 327 18.3 100970 57
2009-07-27 08:04:50 51°20.849 3°2.067 2.7 323 18.4 100970 56
2009-07-27 08:04:55 51°20.854 3°2.09 2.6 322 18.4 100970 56
2009-07-27 08:04:59 51°20.858 3°2.108 2.4 323 18.4 100980 57
2009-07-27 08:05:05 51°20.864 3°2.134 2.6 302 18.4 100980 57
2009-07-27 08:05:10 51°20.869 3°2.157 2.5 325 18.4 100980 57
2009-07-27 08:05:15 51°20.874 3°2.179 2.3 326 18.4 100980 57
2009-07-27 08:05:20 51°20.879 3°2.201 2.2 327 18.4 100980 57
2009-07-27 08:05:25 51°20.883 3°2.224 2.4 282 18.4 100980 57
2009-07-27 08:05:30 51°20.888 3°2.246 2.2 330 18.4 100970 58
2009-07-27 08:05:34 51°20.89 3°2.265 2 331 18.4 100970 58
2009-07-27 08:05:39 51°20.894 3°2.287 1.9 325 18.5 100980 57
2009-07-27 08:05:45 51°20.898 3°2.315 2.1 332 18.5 100980 57
2009-07-27 08:05:50 51°20.901 3°2.338 2.2 333 18.5 100980 57
2009-07-27 08:05:55 51°20.903 3°2.361 2 336 18.5 100980 57
2009-07-27 08:05:59 51°20.905 3°2.379 2 335 18.5 100970 57
2009-07-27 08:06:05 51°20.908 3°2.407 2.3 337 18.5 100970 57
2009-07-27 08:06:10 51°20.91 3°2.43 2.1 338 18.5 100980 58
2009-07-27 08:06:15 51°20.913 3°2.453 1.7 335 18.5 100980 58
2009-07-27 08:06:19 51°20.914 3°2.471 2 335 18.5 100980 56
2009-07-27 08:06:25 51°20.916 3°2.499 2.1 333 18.5 100980 56
2009-07-27 08:06:30 51°20.918 3°2.522 2.1 333 18.5 100970 58
2009-07-27 08:06:35 51°20.92 3°2.545 2 332 18.5 100970 58
2009-07-27 08:06:40 51°20.922 3°2.568 1.9 335 18.5 100970 57
2009-07-27 08:06:45 51°20.924 3°2.591 2.6 342 18.5 100970 57
2009-07-27 08:06:50 51°20.928 3°2.614 2.1 339 18.5 100980 57
2009-07-27 08:06:55 51°20.93 3°2.637 2.5 334 18.5 100980 57
2009-07-27 08:07:00 51°20.932 3°2.66 2.3 341 18.5 100970 56
2009-07-27 08:07:05 51°20.935 3°2.683 2.5 331 18.5 100970 56
2009-07-27 08:07:10 51°20.937 3°2.706 2.6 337 18.6 100970 56
2009-07-27 08:07:14 51°20.939 3°2.724 2.3 342 18.6 100970 56
2009-07-27 08:07:20 51°20.942 3°2.752 2.8 345 18.6 100980 58
2009-07-27 08:07:25 51°20.945 3°2.775 1.9 279 18.6 100980 58
2009-07-27 08:07:30 51°20.947 3°2.798 2.3 340 18.6 100970 56
2009-07-27 08:07:35 51°20.95 3°2.821 2.8 340 18.6 100970 56
2009-07-27 08:07:40 51°20.952 3°2.844 2.5 345 18.6 100970 59
2009-07-27 08:07:45 51°20.955 3°2.866 2.4 340 18.6 100970 59
2009-07-27 08:07:50 51°20.958 3°2.889 2.3 343 18.6 100980 58
2009-07-27 08:07:55 51°20.96 3°2.912 2.7 343 18.6 100980 58
2009-07-27 08:07:59 51°20.962 3°2.931 2.4 336 18.7 100980 58
2009-07-27 08:08:05 51°20.965 3°2.958 2.5 339 18.7 100980 58
2009-07-27 08:08:10 51°20.968 3°2.981 2.7 336 18.7 100980 58
2009-07-27 08:08:15 51°20.971 3°3.003 2.6 336 18.7 100980 58
2009-07-27 08:08:19 51°20.974 3°3.021 2.6 333 18.7 100980 57
2009-07-27 08:08:25 51°20.977 3°3.048 2.9 333 18.7 100980 57
2009-07-27 08:08:30 51°20.981 3°3.071 2.3 332 18.7 100980 57